Weather History for KSLN - August, 2013

Change the Weather History Date:

Wednesday, August 21, 2013

  Actual Average Record
Temperature  
Mean Temperature 81 °F 79 °F  
Max Temperature 94 °F 91 °F 108 °F (1922)
Min Temperature 67 °F 68 °F 46 °F (1956)
Degree Days  
Heating Degree Days 0 0  
Month to date heating degree days 0 0  
Since 1 June heating degree days 10 7  
Since 1 July heating degree days 3 0  
Cooling Degree Days 16 14  
Month to date cooling degree days 232 324  
Year to date cooling degree days 1203 1278  
Since 1 June cooling degree days 1062 1150  
Growing Degree Days 30 (Base 50)    
Moisture  
Dew Point 65 °F    
Average Humidity 64    
Maximum Humidity 87    
Minimum Humidity 41    
Precipitation  
Precipitation 0.00 in 0.12 in 3.21 in (1984)
Month to date precipitation 5.00 2.74  
Year to date precipitation 26.24 23.13  
Sea Level Pressure  
Sea Level Pressure 29.97 in    
Wind  
Wind Speed 11 mph (South)    
Max Wind Speed 21 mph    
Max Gust Speed 26 mph    
Visibility 10 miles    
Events      
T = Trace of Precipitation, MM = Missing Value Source: NWS Daily Summary

Daily Weather History Graph

Daily Weather History Graph

Search for Another Location

Airport or City:

Trip Planner

Search our weather history database for the weather conditions in past years. The results will help you decide how hot, cold, wet, or windy it might be!

Date:

Astronomy

Aug. 21, 2013 Rise Set
Actual Time 6:50 AM CDT 8:16 PM CDT
Civil Twilight 6:22 AM CDT 8:44 PM CDT
Nautical Twilight 5:48 AM CDT 9:17 PM CDT
Astronomical Twilight 5:13 AM CDT 9:53 PM CDT
Moon 8:27 PM CDT (8/21) 7:30 AM CDT (8/21)
Length of Visible Light 14h 22m
Length of Day
13h 26m
Waxing Gibbous, 99% of the Moon is Illuminated
Aug 21
Waxing Gibbous
Aug 28
Last Quarter
Sep 5
New
Sep 12
First Quarter
Sep 19
Full

Hourly Weather History & Observations

Time (CDT) Temp. Heat Index Dew Point Humidity Pressure Visibility Wind Dir Wind Speed Gust Speed Precip Events Conditions
12:53 AM 73.0 °F - 66.0 °F 79% 29.96 in 10.0 mi South 9.2 mph - N/A   Clear
1:53 AM 71.1 °F - 66.0 °F 84% 29.97 in 10.0 mi SSE 8.1 mph - N/A   Clear
2:53 AM 71.1 °F - 66.0 °F 84% 29.96 in 10.0 mi SSE 9.2 mph - N/A   Clear
3:53 AM 71.1 °F - 66.0 °F 84% 29.96 in 10.0 mi South 10.4 mph - N/A   Clear
4:53 AM 69.1 °F - 64.9 °F 87% 29.96 in 8.0 mi South 9.2 mph - N/A   Clear
5:53 AM 69.1 °F - 64.0 °F 84% 29.97 in 9.0 mi SSE 6.9 mph - N/A   Clear
6:53 AM 68.0 °F - 64.0 °F 87% 29.99 in 9.0 mi SSE 8.1 mph - N/A   Clear
7:53 AM 70.0 °F - 64.9 °F 84% 30.00 in 9.0 mi South 9.2 mph - N/A   Clear
8:53 AM 73.9 °F - 64.9 °F 73% 30.00 in 10.0 mi South 10.4 mph - N/A   Clear
9:53 AM 80.1 °F 81.9 °F 64.9 °F 60% 29.99 in 10.0 mi South 13.8 mph 21.9 mph N/A   Clear
10:53 AM 82.9 °F 85.0 °F 66.0 °F 56% 29.99 in 10.0 mi SSW 12.7 mph - N/A   Clear
11:53 AM 88.0 °F 89.6 °F 64.9 °F 46% 29.98 in 10.0 mi SSW 15.0 mph 23.0 mph N/A   Clear
12:53 PM 91.0 °F 93.0 °F 64.9 °F 42% 29.98 in 10.0 mi South 13.8 mph - N/A   Clear
1:53 PM 93.0 °F 95.9 °F 66.0 °F 41% 29.97 in 10.0 mi SSW 13.8 mph - N/A   Clear
2:53 PM 93.0 °F 96.4 °F 66.9 °F 42% 29.96 in 10.0 mi South 15.0 mph 20.7 mph N/A   Clear
3:53 PM 93.0 °F 96.4 °F 66.9 °F 42% 29.95 in 10.0 mi South 12.7 mph 23.0 mph N/A   Clear
4:53 PM 91.9 °F 94.5 °F 66.0 °F 42% 29.94 in 10.0 mi South 16.1 mph 24.2 mph N/A   Clear
5:53 PM 91.0 °F 94.3 °F 66.9 °F 45% 29.94 in 10.0 mi SSE 13.8 mph - N/A   Clear
6:53 PM 88.0 °F 91.4 °F 68.0 °F 51% 29.94 in 10.0 mi SSE 10.4 mph - N/A   Clear
7:53 PM 82.9 °F 84.6 °F 64.9 °F 54% 29.94 in 10.0 mi SSE 10.4 mph - N/A   Clear
8:53 PM 77.0 °F - 66.0 °F 69% 29.95 in 10.0 mi SSE 8.1 mph - N/A   Clear
9:53 PM 75.9 °F - 64.9 °F 69% 29.97 in 10.0 mi SSE 9.2 mph - N/A   Clear
10:53 PM 73.9 °F - 64.0 °F 71% 29.96 in 10.0 mi South 8.1 mph - N/A   Clear
11:53 PM 72.0 °F - 64.0 °F 76% 29.97 in 10.0 mi South 5.8 mph - N/A   Clear